ANG83 NVVV-AGGH

Flight info

Callsign ANG83
Flight time 1h 58m
Altitude 38000
Route 29N VLI B598 IGBED DCT VAKRO VAKRO1A
Aircraft B738/M-SDE2E3FGHIRWXY/LB1

Departure

Time 2026-04-29 14:24
Airport Bauerfield International Airport (NVVV)

Arrival

Time 2026-04-29 16:22
Airport Honiara International Airport (AGGH)
Time Latitude Longitude Altitude Speed Heading
2026-04-29 13:50 -17.70129 168.32057 59 ft 0 kts 201°
2026-04-29 14:15 -17.70119 168.32060 52 ft 2 kts 188°
2026-04-29 14:16 -17.70102 168.32060 55 ft 2 kts 162°
2026-04-29 14:16 -17.70093 168.32056 55 ft 0 kts 141°
2026-04-29 14:16 -17.70086 168.32048 51 ft 2 kts 125°
2026-04-29 14:17 -17.70077 168.32034 51 ft 2 kts 117°
2026-04-29 14:17 -17.70070 168.32019 52 ft 2 kts 118°
2026-04-29 14:17 -17.70062 168.32003 51 ft 2 kts 119°
2026-04-29 14:17 -17.70054 168.31989 50 ft 2 kts 118°
2026-04-29 14:18 -17.70046 168.31974 55 ft 2 kts 118°
2026-04-29 14:18 -17.70038 168.31959 52 ft 2 kts 119°
2026-04-29 14:18 -17.70030 168.31944 53 ft 2 kts 119°
2026-04-29 14:18 -17.70022 168.31929 50 ft 2 kts 119°
2026-04-29 14:19 -17.70016 168.31917 52 ft 1 kts 118°
2026-04-29 14:19 -17.70015 168.31914 52 ft 0 kts 118°
2026-04-29 14:20 -17.70001 168.31933 55 ft 8 kts 27°
2026-04-29 14:20 -17.69938 168.31991 58 ft 12 kts 104°
2026-04-29 14:20 -17.69977 168.32069 55 ft 12 kts 118°
2026-04-29 14:21 -17.70015 168.32145 57 ft 12 kts 118°
2026-04-29 14:21 -17.70053 168.32219 59 ft 11 kts 117°
2026-04-29 14:21 -17.70095 168.32303 56 ft 16 kts 118°
2026-04-29 14:21 -17.70147 168.32405 55 ft 16 kts 118°
2026-04-29 14:22 -17.70198 168.32504 59 ft 15 kts 118°
2026-04-29 14:22 -17.70246 168.32600 55 ft 15 kts 117°
2026-04-29 14:22 -17.70309 168.32685 58 ft 15 kts 145°
2026-04-29 14:22 -17.70381 168.32759 63 ft 14 kts 120°
2026-04-29 14:23 -17.70356 168.32811 64 ft 6 kts 320°
2026-04-29 14:23 -17.70331 168.32765 62 ft 10 kts 297°
2026-04-29 14:23 -17.70236 168.32579 62 ft 62 kts 298°
2026-04-29 14:23 -17.69921 168.31957 54 ft 128 kts 298°
2026-04-29 14:24 -17.69412 168.30955 93 ft 178 kts 298°
2026-04-29 14:24 -17.68838 168.29795 779 ft 178 kts 296°
2026-04-29 14:24 -17.68640 168.28473 1239 ft 194 kts 251°
2026-04-29 14:24 -17.69420 168.27418 1816 ft 182 kts 197°
2026-04-29 14:25 -17.70659 168.27315 2136 ft 189 kts 154°
2026-04-29 14:25 -17.71920 168.27888 2383 ft 212 kts 162°
2026-04-29 14:25 -17.73469 168.27820 2633 ft 241 kts 191°
2026-04-29 14:25 -17.75034 168.27018 2910 ft 266 kts 213°
2026-04-29 14:26 -17.76226 168.25439 3354 ft 286 kts 244°
2026-04-29 14:26 -17.76597 168.23392 4193 ft 288 kts 273°
2026-04-29 14:26 -17.76056 168.21386 4999 ft 287 kts 302°
2026-04-29 14:26 -17.74708 168.19885 5756 ft 283 kts 332°
2026-04-29 14:27 -17.72879 168.19241 6535 ft 276 kts
2026-04-29 14:27 -17.71037 168.19549 7248 ft 271 kts 25°
2026-04-29 14:27 -17.69437 168.20639 7913 ft 273 kts 44°
2026-04-29 14:28 -17.66064 168.22290 9286 ft 284 kts
2026-04-29 14:28 -17.64146 168.21839 10060 ft 287 kts 337°
2026-04-29 14:28 -17.62449 168.20619 10416 ft 307 kts 321°
2026-04-29 14:28 -17.60843 168.19019 10546 ft 329 kts 317°
2026-04-29 14:29 -17.59202 168.17267 10853 ft 342 kts 316°
2026-04-29 14:29 -17.57538 168.15464 11435 ft 344 kts 316°
2026-04-29 14:29 -17.55862 168.13649 11989 ft 350 kts 316°
2026-04-29 14:29 -17.54166 168.11824 12672 ft 351 kts 316°
2026-04-29 14:30 -17.52478 168.10022 13340 ft 351 kts 316°
2026-04-29 14:30 -17.50757 168.08193 14022 ft 353 kts 316°
2026-04-29 14:30 -17.49023 168.06360 14603 ft 356 kts 316°
2026-04-29 14:30 -17.47268 168.04512 15183 ft 359 kts 316°
2026-04-29 14:31 -17.45501 168.02654 15817 ft 360 kts 316°
2026-04-29 14:31 -17.43722 168.00785 16440 ft 362 kts 316°
2026-04-29 14:31 -17.41934 167.98908 17006 ft 366 kts 316°
2026-04-29 14:31 -17.40123 167.97008 17566 ft 369 kts 315°
2026-04-29 14:32 -17.38327 167.95125 18166 ft 371 kts 316°
2026-04-29 14:32 -17.36504 167.93213 18749 ft 371 kts 315°
2026-04-29 14:32 -17.34677 167.91298 19260 ft 373 kts 315°
2026-04-29 14:32 -17.32825 167.89358 19691 ft 377 kts 315°
2026-04-29 14:33 -17.30954 167.87398 20100 ft 381 kts 315°
2026-04-29 14:33 -17.29073 167.85430 20611 ft 383 kts 315°
2026-04-29 14:33 -17.27827 167.84126 20999 ft 382 kts 315°
2026-04-29 14:33 -17.25318 167.81501 21581 ft 387 kts 315°
2026-04-29 14:34 -17.23404 167.79499 22003 ft 390 kts 315°
2026-04-29 14:34 -17.21481 167.77489 22459 ft 392 kts 315°
2026-04-29 14:34 -17.20201 167.76150 22763 ft 393 kts 315°
2026-04-29 14:34 -17.18249 167.74111 23214 ft 395 kts 314°
2026-04-29 14:35 -17.16297 167.72071 23625 ft 398 kts 314°
2026-04-29 14:35 -17.14323 167.70009 23975 ft 400 kts 314°
2026-04-29 14:35 -17.12377 167.67978 24327 ft 401 kts 314°
2026-04-29 14:35 -17.10396 167.65910 24684 ft 403 kts 314°
2026-04-29 14:36 -17.08409 167.63837 25039 ft 404 kts 314°
2026-04-29 14:36 -17.06411 167.61753 25394 ft 406 kts 314°
2026-04-29 14:36 -17.04408 167.59664 25726 ft 408 kts 314°
2026-04-29 14:36 -17.02396 167.57568 26046 ft 409 kts 314°
2026-04-29 14:37 -17.00370 167.55456 26328 ft 412 kts 314°
2026-04-29 14:37 -16.98329 167.53330 26581 ft 415 kts 314°
2026-04-29 14:37 -16.96277 167.51193 26919 ft 416 kts 314°
2026-04-29 14:37 -16.94246 167.49078 27268 ft 417 kts 314°
2026-04-29 14:38 -16.92184 167.46933 27579 ft 418 kts 314°
2026-04-29 14:38 -16.90114 167.44779 27863 ft 420 kts 314°
2026-04-29 14:38 -16.88034 167.42617 28132 ft 422 kts 314°
2026-04-29 14:38 -16.85976 167.40477 28397 ft 424 kts 314°
2026-04-29 14:39 -16.83883 167.38301 28676 ft 425 kts 314°
2026-04-29 14:39 -16.81776 167.36113 28947 ft 427 kts 314°
2026-04-29 14:39 -16.79667 167.33922 29217 ft 428 kts 314°
2026-04-29 14:39 -16.77551 167.31725 29471 ft 430 kts 314°
2026-04-29 14:40 -16.75423 167.29517 29716 ft 431 kts 314°
2026-04-29 14:40 -16.73289 167.27302 29957 ft 433 kts 314°
2026-04-29 14:40 -16.71150 167.25083 30168 ft 434 kts 314°
2026-04-29 14:40 -16.69005 167.22860 30378 ft 435 kts 314°
2026-04-29 14:41 -16.66858 167.20634 30614 ft 435 kts 314°
2026-04-29 14:41 -16.64711 167.18410 30895 ft 434 kts 313°
2026-04-29 14:41 -16.62578 167.16201 31264 ft 430 kts 313°
2026-04-29 14:41 -16.60486 167.14036 31604 ft 428 kts 314°
2026-04-29 14:42 -16.58373 167.11849 31883 ft 428 kts 314°
2026-04-29 14:42 -16.56254 167.09656 32157 ft 427 kts 314°
2026-04-29 14:42 -16.54148 167.07477 32466 ft 426 kts 314°
2026-04-29 14:42 -16.52045 167.05303 32800 ft 424 kts 314°
2026-04-29 14:43 -16.49956 167.03142 33118 ft 423 kts 314°
2026-04-29 14:43 -16.47870 167.00987 33420 ft 422 kts 314°
2026-04-29 14:43 -16.45787 166.98835 33730 ft 421 kts 314°
2026-04-29 14:43 -16.43711 166.96691 34039 ft 420 kts 314°
2026-04-29 14:44 -16.41642 166.94555 34306 ft 418 kts 314°
2026-04-29 14:44 -16.39572 166.92418 34558 ft 418 kts 314°
2026-04-29 14:44 -16.37510 166.90291 34805 ft 417 kts 314°
2026-04-29 14:44 -16.35477 166.88193 35057 ft 416 kts 314°
2026-04-29 14:45 -16.33417 166.86069 35330 ft 415 kts 314°
2026-04-29 14:45 -16.31372 166.83961 35629 ft 412 kts 314°
2026-04-29 14:45 -16.29338 166.81865 35893 ft 411 kts 314°
2026-04-29 14:45 -16.27305 166.79771 36073 ft 412 kts 314°
2026-04-29 14:46 -16.25262 166.77666 36151 ft 415 kts 314°
2026-04-29 14:46 -16.23207 166.75550 36355 ft 414 kts 314°
2026-04-29 14:46 -16.21163 166.73446 36652 ft 412 kts 314°
2026-04-29 14:46 -16.19157 166.71383 36942 ft 410 kts 314°
2026-04-29 14:47 -16.17130 166.69298 37141 ft 410 kts 314°
2026-04-29 14:47 -16.15100 166.67210 37282 ft 411 kts 314°
2026-04-29 14:47 -16.13059 166.65112 37423 ft 412 kts 314°
2026-04-29 14:47 -16.11025 166.63021 37621 ft 411 kts 314°
2026-04-29 14:48 -16.08984 166.60924 37873 ft 409 kts 314°
2026-04-29 14:48 -16.04935 166.56766 37948 ft 412 kts 314°
2026-04-29 14:49 -16.00859 166.52583 37940 ft 410 kts 314°
2026-04-29 14:49 -15.96813 166.48434 37947 ft 406 kts 314°
2026-04-29 14:50 -15.92802 166.44323 37950 ft 404 kts 314°
2026-04-29 14:50 -15.88832 166.40256 37937 ft 402 kts 314°
2026-04-29 14:51 -15.84841 166.36169 37952 ft 403 kts 314°
2026-04-29 14:51 -15.80822 166.32056 37953 ft 405 kts 314°
2026-04-29 14:52 -15.76791 166.27934 37946 ft 408 kts 314°
2026-04-29 14:52 -15.72761 166.23815 37945 ft 411 kts 314°
2026-04-29 14:53 -15.68674 166.19640 37942 ft 413 kts 314°
2026-04-29 14:53 -15.64567 166.15447 37940 ft 415 kts 314°
2026-04-29 14:54 -15.60444 166.11241 37942 ft 416 kts 314°
2026-04-29 14:54 -15.56315 166.07032 37933 ft 416 kts 314°
2026-04-29 14:55 -15.52195 166.02833 37933 ft 414 kts 314°
2026-04-29 14:55 -15.48093 165.98656 37929 ft 413 kts 314°
2026-04-29 14:56 -15.44030 165.94521 37931 ft 412 kts 314°
2026-04-29 14:56 -15.39945 165.90366 37932 ft 411 kts 314°
2026-04-29 14:57 -15.35871 165.86224 37926 ft 410 kts 314°
2026-04-29 14:57 -15.31803 165.82091 37929 ft 409 kts 314°
2026-04-29 14:58 -15.27736 165.77960 37934 ft 409 kts 314°
2026-04-29 14:58 -15.23660 165.73824 37928 ft 409 kts 314°
2026-04-29 14:59 -15.19618 165.69725 37926 ft 410 kts 314°
2026-04-29 14:59 -15.15542 165.65593 37914 ft 410 kts 314°
2026-04-29 15:00 -15.11455 165.61452 37927 ft 411 kts 314°
2026-04-29 15:00 -15.07359 165.57304 37926 ft 412 kts 314°
2026-04-29 15:01 -15.03279 165.53175 37929 ft 413 kts 314°
2026-04-29 15:01 -14.99150 165.49000 37926 ft 415 kts 314°
2026-04-29 15:02 -14.95022 165.44826 37926 ft 416 kts 314°
2026-04-29 15:02 -14.90881 165.40643 37924 ft 416 kts 314°
2026-04-29 15:03 -14.86731 165.36453 37919 ft 416 kts 314°
2026-04-29 15:03 -14.82586 165.32270 37922 ft 416 kts 314°
2026-04-29 15:04 -14.78441 165.28090 37914 ft 416 kts 314°
2026-04-29 15:04 -14.74321 165.23938 37919 ft 415 kts 314°
2026-04-29 15:05 -14.70188 165.19774 37924 ft 415 kts 314°
2026-04-29 15:05 -14.66053 165.15610 37923 ft 415 kts 314°
2026-04-29 15:06 -14.61920 165.11451 37919 ft 414 kts 314°
2026-04-29 15:06 -14.57810 165.07318 37924 ft 414 kts 314°
2026-04-29 15:07 -14.53685 165.03171 37920 ft 414 kts 314°
2026-04-29 15:07 -14.49559 164.99026 37921 ft 413 kts 314°
2026-04-29 15:08 -14.45436 164.94886 37921 ft 413 kts 314°
2026-04-29 15:08 -14.41309 164.90745 37907 ft 413 kts 314°
2026-04-29 15:09 -14.37209 164.86632 37921 ft 413 kts 315°
2026-04-29 15:09 -14.33082 164.82495 37919 ft 414 kts 315°
2026-04-29 15:10 -14.28944 164.78350 37919 ft 414 kts 315°
2026-04-29 15:10 -14.24832 164.74232 37920 ft 415 kts 315°
2026-04-29 15:11 -14.20688 164.70085 37919 ft 415 kts 315°
2026-04-29 15:11 -14.16539 164.65935 37918 ft 416 kts 315°
2026-04-29 15:12 -14.12383 164.61780 37917 ft 416 kts 315°
2026-04-29 15:12 -14.08253 164.57653 37919 ft 416 kts 315°
2026-04-29 15:13 -14.04096 164.53502 37918 ft 416 kts 315°
2026-04-29 15:13 -13.99931 164.49344 37915 ft 416 kts 315°
2026-04-29 15:14 -13.95773 164.45196 37914 ft 415 kts 315°
2026-04-29 15:14 -13.91622 164.41057 37913 ft 415 kts 315°
2026-04-29 15:15 -13.87498 164.36947 37912 ft 415 kts 315°
2026-04-29 15:15 -13.83357 164.32822 37916 ft 414 kts 315°
2026-04-29 15:16 -13.79220 164.28704 37911 ft 414 kts 315°
2026-04-29 15:16 -13.75080 164.24585 37911 ft 413 kts 315°
2026-04-29 15:17 -13.70945 164.20472 37913 ft 413 kts 315°
2026-04-29 15:17 -13.66845 164.16397 37901 ft 412 kts 315°
2026-04-29 15:18 -13.62716 164.12294 37917 ft 412 kts 315°
2026-04-29 15:18 -13.58579 164.08186 37909 ft 413 kts 315°
2026-04-29 15:19 -13.54440 164.04077 37910 ft 414 kts 315°
2026-04-29 15:19 -13.50286 163.99955 37909 ft 415 kts 316°
2026-04-29 15:20 -13.46153 163.95858 37912 ft 416 kts 316°
2026-04-29 15:20 -13.41993 163.91721 37912 ft 416 kts 315°
2026-04-29 15:21 -13.37829 163.87574 37907 ft 417 kts 315°
2026-04-29 15:21 -13.33663 163.83426 37907 ft 417 kts 315°
2026-04-29 15:22 -13.30198 163.79979 37899 ft 417 kts 315°
2026-04-29 15:22 -13.26030 163.75834 37910 ft 417 kts 315°
2026-04-29 15:23 -13.21182 163.71016 37908 ft 417 kts 315°
2026-04-29 15:23 -13.17684 163.67541 37910 ft 418 kts 315°
2026-04-29 15:24 -13.13525 163.63415 37902 ft 418 kts 316°
2026-04-29 15:24 -13.09356 163.59277 37903 ft 418 kts 316°
2026-04-29 15:25 -13.05175 163.55128 37900 ft 418 kts 316°
2026-04-29 15:25 -13.01000 163.50989 37904 ft 418 kts 316°
2026-04-29 15:26 -12.96822 163.46849 37910 ft 417 kts 316°
2026-04-29 15:26 -12.92659 163.42726 37904 ft 417 kts 316°
2026-04-29 15:27 -12.88475 163.38584 37901 ft 418 kts 316°
2026-04-29 15:27 -12.84288 163.34442 37902 ft 419 kts 316°
2026-04-29 15:28 -12.80089 163.30289 37892 ft 420 kts 316°
2026-04-29 15:28 -12.75881 163.26129 37896 ft 420 kts 316°
2026-04-29 15:29 -12.71695 163.21994 37898 ft 421 kts 316°
2026-04-29 15:30 -12.63256 163.13662 37898 ft 421 kts 316°
2026-04-29 15:30 -12.59034 163.09497 37901 ft 421 kts 316°
2026-04-29 15:31 -12.54814 163.05336 37899 ft 421 kts 316°
2026-04-29 15:31 -12.50621 163.01203 37894 ft 421 kts 316°
2026-04-29 15:32 -12.46394 162.97039 37898 ft 422 kts 316°
2026-04-29 15:32 -12.42154 162.92865 37900 ft 423 kts 316°
2026-04-29 15:33 -12.37912 162.88690 37893 ft 423 kts 316°
2026-04-29 15:33 -12.33661 162.84508 37894 ft 424 kts 316°
2026-04-29 15:34 -12.29406 162.80324 37899 ft 424 kts 316°
2026-04-29 15:34 -12.25177 162.76167 37898 ft 424 kts 316°
2026-04-29 15:35 -12.20917 162.71983 37885 ft 424 kts 317°
2026-04-29 15:35 -12.16661 162.67804 37890 ft 424 kts 317°
2026-04-29 15:36 -12.12396 162.63618 37896 ft 425 kts 317°
2026-04-29 15:36 -12.08153 162.59456 37889 ft 425 kts 317°
2026-04-29 15:37 -12.03884 162.55270 37892 ft 426 kts 317°
2026-04-29 15:37 -11.99602 162.51074 37893 ft 426 kts 317°
2026-04-29 15:38 -11.95315 162.46874 37889 ft 426 kts 317°
2026-04-29 15:38 -11.91059 162.42707 37892 ft 426 kts 317°
2026-04-29 15:39 -11.86770 162.38509 37888 ft 427 kts 317°
2026-04-29 15:39 -11.82487 162.34319 37883 ft 427 kts 317°
2026-04-29 15:40 -11.78197 162.30125 37891 ft 427 kts 317°
2026-04-29 15:40 -11.73899 162.25924 37890 ft 428 kts 317°
2026-04-29 15:41 -11.69591 162.21716 37892 ft 428 kts 317°
2026-04-29 15:41 -11.65313 162.17538 37892 ft 429 kts 317°
2026-04-29 15:42 -11.60998 162.13326 37883 ft 429 kts 317°
2026-04-29 15:42 -11.56676 162.09110 37889 ft 430 kts 317°
2026-04-29 15:43 -11.52352 162.04894 37888 ft 430 kts 317°
2026-04-29 15:43 -11.48017 162.00668 37888 ft 430 kts 317°
2026-04-29 15:44 -11.43713 161.96474 37881 ft 431 kts 317°
2026-04-29 15:44 -11.39376 161.92251 37888 ft 431 kts 317°
2026-04-29 15:45 -11.35030 161.88021 37887 ft 432 kts 317°
2026-04-29 15:45 -11.30678 161.83787 37886 ft 433 kts 317°
2026-04-29 15:46 -11.26315 161.79543 37886 ft 433 kts 317°
2026-04-29 15:46 -11.21949 161.75298 37885 ft 434 kts 317°
2026-04-29 15:47 -11.17580 161.71053 37882 ft 434 kts 317°
2026-04-29 15:47 -11.13234 161.66832 37886 ft 434 kts 317°
2026-04-29 15:48 -11.08852 161.62578 37878 ft 434 kts 318°
2026-04-29 15:48 -11.04470 161.58324 37890 ft 435 kts 318°
2026-04-29 15:49 -11.00113 161.54099 37887 ft 436 kts 317°
2026-04-29 15:49 -10.95717 161.49835 37883 ft 436 kts 317°
2026-04-29 15:50 -10.91316 161.45570 37883 ft 437 kts 317°
2026-04-29 15:50 -10.86903 161.41295 37883 ft 438 kts 317°
2026-04-29 15:51 -10.82516 161.37046 37882 ft 438 kts 317°
2026-04-29 15:51 -10.78098 161.32769 37882 ft 438 kts 317°
2026-04-29 15:52 -10.73673 161.28486 37879 ft 438 kts 317°
2026-04-29 15:52 -10.69255 161.24213 37870 ft 438 kts 318°
2026-04-29 15:53 -10.64540 161.20391 37881 ft 436 kts 331°
2026-04-29 15:53 -10.58957 161.18058 37892 ft 434 kts 343°
2026-04-29 15:54 -10.53138 161.16328 37830 ft 436 kts 344°
2026-04-29 15:54 -10.50201 161.15461 37324 ft 441 kts 343°
2026-04-29 15:54 -10.47262 161.14583 36772 ft 440 kts 343°
2026-04-29 15:54 -10.44327 161.13696 36229 ft 438 kts 343°
2026-04-29 15:55 -10.41457 161.12822 35866 ft 433 kts 342°
2026-04-29 15:55 -10.38578 161.11942 35440 ft 430 kts 342°
2026-04-29 15:55 -10.35725 161.11069 35033 ft 427 kts 342°
2026-04-29 15:55 -10.32889 161.10200 34599 ft 425 kts 342°
2026-04-29 15:56 -10.30064 161.09335 34180 ft 422 kts 342°
2026-04-29 15:56 -10.27257 161.08475 33732 ft 420 kts 342°
2026-04-29 15:56 -10.24458 161.07619 33282 ft 418 kts 342°
2026-04-29 15:56 -10.21685 161.06770 32855 ft 415 kts 342°
2026-04-29 15:57 -10.18933 161.05929 32443 ft 412 kts 342°
2026-04-29 15:57 -10.16230 161.05102 32041 ft 409 kts 342°
2026-04-29 15:57 -10.13513 161.04271 31649 ft 406 kts 342°
2026-04-29 15:57 -10.10812 161.03446 31248 ft 404 kts 342°
2026-04-29 15:58 -10.08126 161.02625 30838 ft 403 kts 342°
2026-04-29 15:58 -10.05449 161.01807 30446 ft 401 kts 342°
2026-04-29 15:58 -10.02780 161.00991 30035 ft 400 kts 342°
2026-04-29 15:58 -10.00123 161.00180 29589 ft 398 kts 342°
2026-04-29 15:59 -9.97472 160.99370 29166 ft 395 kts 342°
2026-04-29 15:59 -9.94843 160.98567 28738 ft 392 kts 343°
2026-04-29 15:59 -9.92242 160.97773 28339 ft 389 kts 343°
2026-04-29 15:59 -9.89663 160.96986 27935 ft 386 kts 343°
2026-04-29 16:00 -9.87147 160.96153 27537 ft 383 kts 335°
2026-04-29 16:00 -9.84946 160.94665 27132 ft 380 kts 317°
2026-04-29 16:00 -9.83280 160.92589 26703 ft 380 kts 305°
2026-04-29 16:00 -9.81798 160.90377 26285 ft 379 kts 304°
2026-04-29 16:01 -9.80348 160.88158 25905 ft 376 kts 304°
2026-04-29 16:01 -9.78903 160.85943 25501 ft 375 kts 304°
2026-04-29 16:01 -9.77456 160.83736 25104 ft 374 kts 304°
2026-04-29 16:01 -9.76013 160.81547 24714 ft 373 kts 304°
2026-04-29 16:02 -9.74566 160.79365 24332 ft 372 kts 305°
2026-04-29 16:02 -9.73140 160.77221 23947 ft 371 kts 305°
2026-04-29 16:02 -9.71693 160.75054 23560 ft 371 kts 305°
2026-04-29 16:02 -9.70249 160.72891 23120 ft 370 kts 306°
2026-04-29 16:03 -9.68809 160.70735 22716 ft 367 kts 306°
2026-04-29 16:03 -9.67379 160.68596 22323 ft 365 kts 305°
2026-04-29 16:03 -9.65958 160.66471 21938 ft 363 kts 305°
2026-04-29 16:03 -9.64544 160.64356 21559 ft 361 kts 306°
2026-04-29 16:04 -9.63134 160.62248 21177 ft 359 kts 306°
2026-04-29 16:04 -9.61732 160.60154 20818 ft 358 kts 305°
2026-04-29 16:04 -9.60337 160.58070 20436 ft 357 kts 306°
2026-04-29 16:04 -9.58947 160.55994 20054 ft 356 kts 306°
2026-04-29 16:05 -9.57558 160.53920 19683 ft 355 kts 306°
2026-04-29 16:05 -9.56173 160.51850 19307 ft 354 kts 305°
2026-04-29 16:05 -9.54809 160.49814 18922 ft 354 kts 305°
2026-04-29 16:05 -9.53424 160.47746 18542 ft 354 kts 305°
2026-04-29 16:06 -9.52042 160.45683 18173 ft 353 kts 305°
2026-04-29 16:06 -9.50659 160.43620 17756 ft 352 kts 305°
2026-04-29 16:06 -9.49285 160.41569 17375 ft 350 kts 305°
2026-04-29 16:06 -9.47921 160.39534 17000 ft 348 kts 305°
2026-04-29 16:07 -9.46565 160.37511 16634 ft 346 kts 305°
2026-04-29 16:07 -9.45670 160.36176 16392 ft 345 kts 305°
2026-04-29 16:07 -9.43866 160.33485 15895 ft 343 kts 305°
2026-04-29 16:07 -9.42539 160.31507 15541 ft 342 kts 305°
2026-04-29 16:08 -9.41202 160.29514 15166 ft 341 kts 306°
2026-04-29 16:08 -9.39870 160.27528 14806 ft 340 kts 306°
2026-04-29 16:08 -9.38539 160.25545 14438 ft 340 kts 306°
2026-04-29 16:08 -9.37212 160.23568 14075 ft 339 kts 306°
2026-04-29 16:09 -9.35888 160.21595 13709 ft 339 kts 306°
2026-04-29 16:09 -9.34564 160.19623 13305 ft 338 kts 306°
2026-04-29 16:09 -9.33248 160.17662 12942 ft 336 kts 306°
2026-04-29 16:09 -9.31950 160.15730 12559 ft 335 kts 306°
2026-04-29 16:10 -9.30643 160.13782 12163 ft 334 kts 306°
2026-04-29 16:10 -9.29340 160.11842 11808 ft 332 kts 306°
2026-04-29 16:10 -9.28039 160.09905 11454 ft 331 kts 306°
2026-04-29 16:10 -9.27185 160.08634 11237 ft 329 kts 306°
2026-04-29 16:11 -9.25900 160.06721 10920 ft 326 kts 306°
2026-04-29 16:11 -9.24628 160.04829 10599 ft 324 kts 306°
2026-04-29 16:11 -9.23363 160.02946 10272 ft 322 kts 305°
2026-04-29 16:11 -9.22423 160.00924 10106 ft 317 kts 282°
2026-04-29 16:12 -9.22399 159.98739 9975 ft 308 kts 257°
2026-04-29 16:12 -9.23149 159.96726 9652 ft 306 kts 237°
2026-04-29 16:12 -9.24486 159.95073 9346 ft 302 kts 224°
2026-04-29 16:12 -9.25959 159.93568 9040 ft 300 kts 223°
2026-04-29 16:13 -9.27445 159.92086 8728 ft 299 kts 222°
2026-04-29 16:13 -9.28904 159.90628 8425 ft 298 kts 223°
2026-04-29 16:13 -9.30369 159.89153 8119 ft 296 kts 223°
2026-04-29 16:13 -9.31825 159.87679 7817 ft 295 kts 223°
2026-04-29 16:14 -9.33275 159.86204 7519 ft 294 kts 223°
2026-04-29 16:14 -9.34715 159.84736 7224 ft 292 kts 223°
2026-04-29 16:14 -9.36145 159.83276 6943 ft 291 kts 223°
2026-04-29 16:14 -9.37572 159.81818 6653 ft 290 kts 223°
2026-04-29 16:15 -9.38995 159.80366 6374 ft 289 kts 222°
2026-04-29 16:15 -9.40606 159.79247 6047 ft 283 kts 197°
2026-04-29 16:15 -9.42517 159.78992 5717 ft 276 kts 172°
2026-04-29 16:15 -9.44359 159.79458 5478 ft 270 kts 156°
2026-04-29 16:16 -9.46082 159.80172 5332 ft 263 kts 155°
2026-04-29 16:16 -9.47754 159.80866 5212 ft 256 kts 156°
2026-04-29 16:16 -9.49341 159.81593 5049 ft 243 kts 143°
2026-04-29 16:16 -9.50403 159.82814 5017 ft 225 kts 115°
2026-04-29 16:17 -9.50807 159.84293 4815 ft 217 kts 90°
2026-04-29 16:17 -9.50508 159.85741 4560 ft 212 kts 75°
2026-04-29 16:17 -9.50077 159.87156 4238 ft 208 kts 73°
2026-04-29 16:17 -9.49596 159.88511 3909 ft 197 kts 72°
2026-04-29 16:18 -9.49129 159.89760 3633 ft 184 kts 71°
2026-04-29 16:18 -9.48650 159.90935 3329 ft 180 kts 70°
2026-04-29 16:18 -9.48171 159.92099 3084 ft 180 kts 71°
2026-04-29 16:18 -9.47696 159.93295 2798 ft 184 kts 71°
2026-04-29 16:19 -9.47217 159.94491 2508 ft 183 kts 71°
2026-04-29 16:19 -9.46745 159.95669 2243 ft 172 kts 70°
2026-04-29 16:19 -9.46310 159.96746 1978 ft 159 kts 71°
2026-04-29 16:19 -9.45914 159.97724 1736 ft 145 kts 70°
2026-04-29 16:20 -9.45536 159.98676 1570 ft 147 kts 70°
2026-04-29 16:20 -9.45142 159.99643 1303 ft 149 kts 70°
2026-04-29 16:20 -9.44749 160.00613 1037 ft 148 kts 68°
2026-04-29 16:20 -9.44351 160.01565 799 ft 145 kts 69°
2026-04-29 16:21 -9.43987 160.02511 531 ft 143 kts 69°
2026-04-29 16:21 -9.43611 160.03424 326 ft 137 kts 69°
2026-04-29 16:21 -9.43265 160.04311 114 ft 133 kts 70°
2026-04-29 16:21 -9.42937 160.05139 31 ft 102 kts 70°
2026-04-29 16:22 -9.42778 160.05548 28 ft 51 kts 69°
2026-04-29 16:22 -9.42652 160.05864 28 ft 45 kts 68°
2026-04-29 16:22 -9.42544 160.06135 24 ft 39 kts 67°
2026-04-29 16:22 -9.42480 160.06322 28 ft 21 kts 86°
2026-04-29 16:23 -9.42437 160.06357 25 ft 7 kts 305°
2026-04-29 16:23 -9.42454 160.06319 26 ft 8 kts 218°
2026-04-29 16:23 -9.42493 160.06263 26 ft 12 kts 248°
2026-04-29 16:23 -9.42527 160.06178 24 ft 14 kts 248°
2026-04-29 16:24 -9.42564 160.06085 28 ft 15 kts 248°
2026-04-29 16:24 -9.42601 160.05992 26 ft 14 kts 248°
2026-04-29 16:24 -9.42637 160.05903 27 ft 13 kts 248°
2026-04-29 16:24 -9.42676 160.05803 26 ft 18 kts 248°
2026-04-29 16:25 -9.42726 160.05678 27 ft 19 kts 248°
2026-04-29 16:25 -9.42775 160.05557 28 ft 18 kts 248°
2026-04-29 16:25 -9.42821 160.05439 30 ft 18 kts 248°
2026-04-29 16:25 -9.42866 160.05325 31 ft 17 kts 249°
2026-04-29 16:26 -9.42909 160.05216 31 ft 16 kts 248°
2026-04-29 16:26 -9.42951 160.05111 31 ft 16 kts 248°
2026-04-29 16:26 -9.42992 160.05010 31 ft 15 kts 248°
2026-04-29 16:26 -9.43031 160.04913 31 ft 15 kts 249°
2026-04-29 16:27 -9.43068 160.04816 31 ft 16 kts 249°
2026-04-29 16:27 -9.43109 160.04716 33 ft 15 kts 247°
2026-04-29 16:27 -9.43148 160.04618 34 ft 15 kts 248°
2026-04-29 16:27 -9.43159 160.04570 35 ft 3 kts 306°
2026-04-29 16:28 -9.43128 160.04557 35 ft 9 kts 341°
2026-04-29 16:28 -9.43065 160.04535 35 ft 10 kts 341°
2026-04-29 16:28 -9.43000 160.04510 36 ft 10 kts 340°
2026-04-29 16:28 -9.42936 160.04486 36 ft 10 kts 339°
2026-04-29 16:29 -9.42878 160.04471 36 ft 8 kts 14°
2026-04-29 16:29 -9.42874 160.04472 36 ft 0 kts 19°